Regional Weather Roundup
Issued by NWS

Home | Current Version | Previous Version | Text Only | Print | Product List | Glossary On
Versions: 1 2 3 4 5 6 7 8 9 10 11 12 13 14 15 16 17 18 19 20 21 22 23 24 25 26 27 28 29 30 31 32 33 34 35 36 37 38 39 40 41 42 43 44 45 46 47 48 49 50
000
ASUS43 KLSX 200859
RWRMO

WEATHER SUMMARY FOR MISSOURI
NATIONAL WEATHER SERVICE SPRINGFIELD MO
400 AM CDT WED AUG 20 2014

NOTE: "FAIR" INDICATES FEW OR NO CLOUDS BELOW 12,000 FEET WITH NO
       SIGNIFICANT WEATHER AND/OR OBSTRUCTIONS TO VISIBILITY.
       CURRENT SKY AND/OR WEATHER CONDITIONS ARE NOT AVAILABLE FOR
       CHILLICOTHE AND FARMINGTON.

MOZ001>031-035>038-043-044-053-054-201000-
...NORTHERN AND WESTERN MISSOURI...

CITY           SKY/WX    TMP DP  RH WIND       PRES   REMARKS
KANSAS CTY INT PTCLDY    76  69  79 SW10      29.83S
KANSAS C DTWN  PTCLDY    83  69  62 SW10      29.82S
LEE`S SUMMIT   CLEAR     78  69  73 SW10      29.85S
ST JOSEPH      PTCLDY    73  70  90 S8        29.79F
KIRKSVILLE     PTCLDY    71  68  90 SE6       29.84F

$$
MOZ066>068-077>081-088>096-101>105-201000-
...SOUTHWEST MISSOURI...

CITY           SKY/WX    TMP DP  RH WIND       PRES   REMARKS
SPRINGFIELD    CLEAR     74  70  87 S6        29.92R
JOPLIN         CLEAR     77  70  79 S8        29.90S

$$
MOZ032>034-039>042-045>050-055>058-069>072-201000-
...CENTRAL MISSOURI...

CITY           SKY/WX    TMP DP  RH WIND       PRES   REMARKS
COLUMBIA       PTCLDY    73  70  90 S6        29.86S
JEFFERSON CITY PTCLDY    70  69  97 E3        29.85S
ROLLA          PTCLDY    71  68  90 SW7       29.89R
SEDALIA        CLEAR     77  70  79 SW10      29.86S
OSAGE BEACH    CLEAR     70  66  88 CALM      29.89R

$$
MOZ051-052-059>065-201000-
...EAST CENTRAL MISSOURI...

CITY           SKY/WX    TMP DP  RH WIND       PRES   REMARKS
ST LOUIS INTL  CLEAR     75  71  87 CALM      29.86R
SPIRIT OF STL  CLEAR     69  68  96 CALM      29.84S
ST CHARLES     FOG       70  69  97 CALM      29.84R VSB 1/2

$$
MOZ072>076-082>087-097>100-106>115-201000-
...SOUTH CENTRAL AND SOUTHEAST MISSOURI...

CITY           SKY/WX    TMP DP  RH WIND       PRES   REMARKS
CAPE GIRARDEAU CLEAR     67  66  97 CALM      29.86R
FARMINGTON     CLEAR     72  66  83 CALM      29.91R
POPLAR BLUFF   CLEAR     74  68  81 CALM      29.86R
WEST PLAINS    CLEAR     74  70  87 W6        29.94R

$$



USA.gov is the U.S. government's official web portal to all federal, state and local government web resources and services.